Regional Weather Roundup
Issued by NWS

Home | Current Version | Previous Version | Text Only | Print | Product List | Glossary Off
Versions: 1 2 3 4 5 6 7 8 9 10 11 12 13 14 15 16 17 18 19 20 21 22 23 24 25 26 27 28

000
ASUS45 KPSR 221810
RWRAZ

ARIZONA HOURLY REGIONAL WEATHER ROUNDUP
NATIONAL WEATHER SERVICE PHOENIX AZ
1100 AM MST MON AUG 22 2016

NOTE: FAIR INDICATES FEW OR NO CLOUDS BELOW 12,000 FEET WITH NO
SIGNIFICANT WEATHER AND/OR OBSTRUCTIONS TO VISIBILITY.

AZZ001>003-036-221900-
NORTHWEST ARIZONA

CITY           SKY/WX    TMP DP  RH WIND       PRES   REMARKS
BULLHEAD CITY  SUNNY     95  55  26 S7        29.86F
KINGMAN        MOSUNNY   83  51  33 SW6       30.05F
6HR MIN TEMP:  69; 6HR MAX TEMP:  85;

$$

AZZ004>008-015-016-018-221900-
NORTH CENTRAL ARIZONA

CITY           SKY/WX    TMP DP  RH WIND       PRES   REMARKS
GRAND CANYON   MOSUNNY   70  46  42 W7G20     30.25F
6HR MIN TEMP:  47; 6HR MAX TEMP:  72;

PRESCOTT       PTSUNNY   70  59  68 E5        30.17F THUNDER
6HR MIN TEMP:  57; 6HR MAX TEMP:  76; 6HR PCP:  0.41;

FLAGSTAFF      MOSUNNY   69  44  40 S13       30.27F
6HR MIN TEMP:  44; 6HR MAX TEMP:  69;

PAYSON         SUNNY     77  52  41 VRB5      30.21S
PAGE           CLOUDY    80  46  30 NE8       30.08F
6HR MIN TEMP:  70; 6HR MAX TEMP:  80;

$$

AZZ009>014-017-221900-
NORTHEAST ARIZONA

CITY           SKY/WX    TMP DP  RH WIND       PRES   REMARKS
WINSLOW        MOSUNNY   78  51  38 CALM      30.14F
6HR MIN TEMP:  58; 6HR MAX TEMP:  79;

SAINT JOHNS    MOSUNNY   76  45  33 W10       30.18F
6HR MIN TEMP:  56; 6HR MAX TEMP:  79;

WINDOW ROCK    CLOUDY    64  49  57 VRB5      30.27F
6HR MIN TEMP:  51; 6HR MAX TEMP:  64;

SHOW LOW       SUNNY     70  46  43 SW10G16   30.26F
$$

AZZ023-221900-
GREATER PHOENIX AREA

CITY           SKY/WX    TMP DP  RH WIND       PRES   REMARKS
PHOENIX        MOSUNNY   92  59  33 NE3       29.91F
6HR MIN TEMP:  79; 6HR MAX TEMP:  92;

BUCKEYE        SUNNY     90  63  40 SE6       29.93S
GLENDALE       MOSUNNY   91  61  35 N3        29.93F
LUKE AFB       SUNNY     91  61  36 SE5       29.90F
6HR MIN TEMP:  78; 6HR MAX TEMP:  91;

DEER VALLEY    SUNNY     89  57  33 S8        29.93F
6HR MIN TEMP:  77; 6HR MAX TEMP:  90;

SCOTTSDALE     SUNNY     89  57  33 S8        29.95F
6HR MIN TEMP:  78; 6HR MAX TEMP:  90;

MESA-FALCON    MOSUNNY  N/A N/A N/A S7        29.91F
MESA-GATEWAY   MOSUNNY   90  57  33 VRB6      29.94F
CHANDLER       MOSUNNY   91  59  33 VRB6      29.93F
$$

AZZ027-028-221900-
SOUTHWEST MARICOPA COUNTY AND PINAL COUNTY

CITY           SKY/WX    TMP DP  RH WIND       PRES   REMARKS
CASA GRANDE    SUNNY     91  59  33 S6        29.96S
6HR MIN TEMP:  72; 6HR MAX TEMP:  91;

GILA BEND      MOSUNNY   93  61  34 W7        29.88F
6HR MIN TEMP:  79; 6HR MAX TEMP:  94;

$$

AZZ503-504-507>509-221900-
SOUTHEAST ARIZONA

CITY           SKY/WX    TMP DP  RH WIND       PRES   REMARKS
TUCSON         SUNNY     85  55  35 CALM      30.03F
DAVIS-MONTHAN  SUNNY     85  56  37 VRB1      30.02F
6HR MIN TEMP:  65; 6HR MAX TEMP:  85;

RYAN FIELD     SUNNY     84  57  39 MISG      30.03S
NOGALES        SUNNY     81  56  42 VRB5      30.11S
6HR MIN TEMP:  57; 6HR MAX TEMP:  83;

SIERRA VISTA   SUNNY     81  48  31 VRB5      30.15F
6HR MIN TEMP:  58; 6HR MAX TEMP:  81;

DOUGLAS        SUNNY     82  54  37 CALM      30.11F
6HR MIN TEMP:  62; 6HR MAX TEMP:  82;

SAFFORD        SUNNY     85  57  38 VRB6      30.04F
6HR MIN TEMP:  68; 6HR MAX TEMP:  86;

$$

AZZ020-021-025-026-031-221900-
SOUTHWEST ARIZONA

CITY           SKY/WX    TMP DP  RH WIND       PRES   REMARKS
YUMA           NOT AVBL
$$

CAZ031-033-041-043-047-048-061-221900-
SOUTHERN CALIFORNIA

CITY           SKY/WX    TMP DP  RH WIND       PRES   REMARKS
DOWNTOWN L.A.  SUNNY     79  59  50 CALM      29.93S
6HR MIN TEMP:  63; 6HR MAX TEMP:  80;

L.A. AIRPORT   MOSUNNY   73  62  68 SW10      29.95R
6HR MIN TEMP:  63; 6HR MAX TEMP:  75;

SAN DIEGO      MOSUNNY   74  62  66 NW8       29.96R
6HR MIN TEMP:  67; 6HR MAX TEMP:  74;

BURBANK        SUNNY     82  52  35 VRB6      29.94S
6HR MIN TEMP:  64; 6HR MAX TEMP:  82;

ONTARIO        MOSUNNY   81  49  32 CALM      29.95S
6HR MIN TEMP:  64; 6HR MAX TEMP:  82;

RIVERSIDE      SUNNY     82  51  34 CALM      29.94F
6HR MIN TEMP:  65; 6HR MAX TEMP:  82;

PALM SPRINGS   SUNNY     96  50  20 E5        29.86S
6HR MIN TEMP:  78; 6HR MAX TEMP:  96;

EL CENTRO NAS  MOSUNNY   97  50  20 SE5       29.83F
6HR MIN TEMP:  78; 6HR MAX TEMP:  97;

IMPERIAL       SUNNY     99  58  25 E6        29.81F
6HR MIN TEMP:  80; 6HR MAX TEMP: 100;

BLYTHE         SUNNY     94  67  41 VRB7      29.85F
6HR MIN TEMP:  78; 6HR MAX TEMP:  94;

NEEDLES        SUNNY     97  56  25 SE6       29.87F
6HR MIN TEMP:  81; 6HR MAX TEMP:  97;

$$

NVZ020-UTZ003-221900-
SOUTHERN NEVADA-UTAH

CITY           SKY/WX    TMP DP  RH WIND       PRES   REMARKS
LAS VEGAS      PTSUNNY   89  50  26 E10       29.90F
6HR MIN TEMP:  78; 6HR MAX TEMP:  89;

SALT LAKE CITY MOSUNNY   87  37  17 SW7       29.98S
6HR MIN TEMP:  72; 6HR MAX TEMP:  87;

$$

NMZ009-TXZ055-221900-
NEW MEXICO-WEST TEXAS

CITY           SKY/WX    TMP DP  RH WIND       PRES   REMARKS
ALBUQUERQUE    CLOUDY    71  54  54 SW7       30.20F
6HR MIN TEMP:  58; 6HR MAX TEMP:  72;

EL PASO        MOSUNNY   79  63  57 VRB5      30.12F
6HR MIN TEMP:  66; 6HR MAX TEMP:  79;

$$


........................KEY........................
SKY/WX - SKY CONDITION/WEATHER
TMP    - TEMPERATURE IN FAHRENHEIT
DP     - DEW POINT IN FAHRENHEIT
RH     - RELATIVE HUMIDITY IN PERCENT
WIND   - DIRECTION AND SPEED IN MILES PER HOUR (MPH)
VRB    - VARIABLE WIND DIRECTION
PRES   - MEAN SEA LEVEL PRESSURE IN INCHES OF MERCURY
         F - FALLING PRESSURE   R - RISING PRESSURE
         S - STEADY PRESSURE
VSB    - VISIBILITY IN MILES
HX     - HEAT INDEX IN FAHRENHEIT
WCI    - WIND CHILL INDEX IN FAHRENHEIT
TC     - TEMPERATURE IN CELSIUS WHICH IS ALSO KNOWN AS
         TEMPERATURE IN CENTIGRADE
AFB    - AIR FORCE BASE
         LUKE AFB IS LUKE AIR FORCE BASE
         DAVIS-MONTHAN IS DAVIS-MONTHAN AIR FORCE BASE
NAS    - NAVAL AIR STATION
         EL CENTRO NAS IS EL CENTRO NAVAL AIR STATION
N/A    - NOT AVAILABLE





USA.gov is the U.S. government's official web portal to all federal, state and local government web resources and services.